"Pseudo-MPEC" for C0MRUR5

Created 2023 Nov 24 21:22:04 UT using Find_Orb

Click here for an explanation of pseudo-MPECs

 
 Astrometry: 
     C0MRUR5  C2023 11 12.39973603 27 53.197+29 23 01.14   ~BGCM 23.08GVNEOCPV00
     C0MRUR5* C2023 11 15.36443203 24 29.840+29 30 53.28   ~BF9b 22.22GVNEOCPV00
     C0MRUR5  C2023 11 15.36873703 24 29.207+29 30 53.71   ~BF9b 22.00GVNEOCPV00
     C0MRUR5  C2023 11 15.37301003 24 28.627+29 30 53.17   ~BF9b 22.33GVNEOCPV00

Station data:
(V00) Kitt Peak-Bok  (N31.963125 W111.600190)  US/Arizona.  Observers T. A.
   Pruyne, B. M. Africano, E. J. Christensen, G. A. Farneth, D. C. Fuls, A.
   R. Gibbs, A. D. Grauer, H. Gröller, J. A. Johnson, R. A. Kowalski, S. M.
   Larson, G. J. Leonard, D. Rankin, R. L. Seaman, F. C. Shelly, K. W.
   Wierzchoś. 2.25-m reflector + 4x4K mosaic CCD.

Orbital elements:  C0MRUR5
   Perihelion 2024 Feb 27.46213 +/- 53.2 TT = 11:05:28 (JD 2460367.96213)
Epoch 2023 Nov 15.0 TT = JDT 2460263.5   Earth MOID: 0.3996   Ma: 0.0606
M 330.18921108 +/- 24               (J2000 ecliptic)             AutoNEOCP
n   0.28537411 +/- 0.168            Peri.  124.97791 +/- 80
a   2.28486036 +/- 0.899            Node   355.05177 +/- 49
e   0.3980470 +/- 0.14              Incl.    4.96840 +/- 3.5
P   3.45                   H 21.92  G  0.15   U 11.5  SR
q 1.37537835 +/- 0.532    Q 3.19434237 +/- 0.712
From 4 observations 2023 Nov. 12-15; mean residual 1".87
Residuals in arcseconds: 
231112 V00  .01-  .00     231115 V00  .22-  .32+    
231115 V00  3.8+  .42+    231115 V00  3.6-  .75-    

Ephemerides (geocentric):
Date (UTC) HH   RA             Dec           delta  r     elong  mag " sig PA
---- --------  ------------   ------------  ------ ------ -----  --- --------
2023 11 24 21  03 12 49.688   +29 41 46.72  .63705 1.6128 166.0 22.6  31d 113
2023 11 24 22  03 12 46.603   +29 41 46.74  .63693 1.6126 166.0 22.6  32d 113
2023 11 24 23  03 12 43.519   +29 41 46.74  .63681 1.6125 166.0 22.6  32d 113
2023 11 25 00  03 12 40.436   +29 41 46.71  .63669 1.6123 165.9 22.6  33d 113
2023 11 25 01  03 12 37.353   +29 41 46.66  .63657 1.6121 165.9 22.6  33d 113
2023 11 25 02  03 12 34.272   +29 41 46.58  .63646 1.6119 165.9 22.6  33d 113
2023 11 25 03  03 12 31.191   +29 41 46.48  .63634 1.6117 165.8 22.6  34d 113
2023 11 25 04  03 12 28.111   +29 41 46.36  .63622 1.6116 165.8 22.6  34d 113
2023 11 25 05  03 12 25.032   +29 41 46.21  .63611 1.6114 165.8 22.6  34d 113
2023 11 25 06  03 12 21.954   +29 41 46.04  .63599 1.6112 165.7 22.6  34d 113
2023 11 25 07  03 12 18.876   +29 41 45.85  .63587 1.6110 165.7 22.6  35d 113
2023 11 25 08  03 12 15.800   +29 41 45.63  .63576 1.6108 165.7 22.6  35d 113
2023 11 25 09  03 12 12.725   +29 41 45.39  .63564 1.6107 165.6 22.6  35d 113
2023 11 25 10  03 12 09.650   +29 41 45.12  .63553 1.6105 165.6 22.6  35d 113
2023 11 25 11  03 12 06.577   +29 41 44.83  .63541 1.6103 165.6 22.6  35d 113
2023 11 25 12  03 12 03.504   +29 41 44.52  .63530 1.6101 165.5 22.6  35d 113
2023 11 25 13  03 12 00.432   +29 41 44.19  .63518 1.6099 165.5 22.6  36d 113
2023 11 25 14  03 11 57.362   +29 41 43.83  .63507 1.6098 165.5 22.6  36d 113
2023 11 25 15  03 11 54.292   +29 41 43.44  .63496 1.6096 165.4 22.6  36d 113
2023 11 25 16  03 11 51.223   +29 41 43.04  .63484 1.6094 165.4 22.6  36d 113
2023 11 25 17  03 11 48.156   +29 41 42.61  .63473 1.6092 165.4 22.6  36d 113
2023 11 25 18  03 11 45.089   +29 41 42.16  .63462 1.6090 165.3 22.6  36d 113
2023 11 25 19  03 11 42.024   +29 41 41.68  .63451 1.6089 165.3 22.6  36d 113
2023 11 25 20  03 11 38.959   +29 41 41.18  .63440 1.6087 165.2 22.6  36d 113
2023 11 25 21  03 11 35.896   +29 41 40.66  .63429 1.6085 165.2 22.6  36d 113
2023 11 25 22  03 11 32.833   +29 41 40.11  .63417 1.6083 165.2 22.6  37d 113
2023 11 25 23  03 11 29.772   +29 41 39.54  .63406 1.6082 165.1 22.6  37d 113
2023 11 26 00  03 11 26.712   +29 41 38.95  .63395 1.6080 165.1 22.6  37d 113
2023 11 26 01  03 11 23.653   +29 41 38.34  .63384 1.6078 165.1 22.6  37d 113
2023 11 26 02  03 11 20.595   +29 41 37.70  .63373 1.6076 165.0 22.6  37d 113
2023 11 26 03  03 11 17.538   +29 41 37.03  .63363 1.6074 165.0 22.6  37d 113
2023 11 26 04  03 11 14.483   +29 41 36.35  .63352 1.6073 165.0 22.6  37d 113
2023 11 26 05  03 11 11.428   +29 41 35.64  .63341 1.6071 164.9 22.6  37d 113
2023 11 26 06  03 11 08.375   +29 41 34.91  .63330 1.6069 164.9 22.6  37d 112
2023 11 26 07  03 11 05.323   +29 41 34.15  .63319 1.6067 164.8 22.6  37d 112
2023 11 26 08  03 11 02.272   +29 41 33.38  .63308 1.6065 164.8 22.6  37d 112
2023 11 26 09  03 10 59.223   +29 41 32.58  .63298 1.6064 164.8 22.6  37d 112
2023 11 26 10  03 10 56.174   +29 41 31.75  .63287 1.6062 164.7 22.6  37d 112
2023 11 26 11  03 10 53.127   +29 41 30.91  .63276 1.6060 164.7 22.6  37d 112
2023 11 26 12  03 10 50.081   +29 41 30.04  .63266 1.6058 164.7 22.6  38d 112
2023 11 26 13  03 10 47.037   +29 41 29.14  .63255 1.6056 164.6 22.6  38d 112
2023 11 26 14  03 10 43.993   +29 41 28.23  .63245 1.6055 164.6 22.6  38d 112
2023 11 26 15  03 10 40.951   +29 41 27.29  .63234 1.6053 164.6 22.6  38d 112
2023 11 26 16  03 10 37.910   +29 41 26.33  .63224 1.6051 164.5 22.6  38d 112
2023 11 26 17  03 10 34.871   +29 41 25.34  .63213 1.6049 164.5 22.6  38d 112
2023 11 26 18  03 10 31.833   +29 41 24.34  .63203 1.6048 164.4 22.6  38d 112
2023 11 26 19  03 10 28.796   +29 41 23.31  .63192 1.6046 164.4 22.6  38d 112
2023 11 26 20  03 10 25.761   +29 41 22.25  .63182 1.6044 164.4 22.6  38d 112